TITAN 3C TRANSTAGE DEB, 26050

Orbit data source: Space-Track

TITAN 3C TRANSTAGE DEB, 26050 is space debris in HEO originally from a launch on Tue, 21 Dec 1965 UTC launched from the Air Force Eastern Test Range (AFETR). Debris objects in space refer to the collection of defunct objects orbiting the Earth. Examples of debris include non-operational satellites, rocket bodies, and fragments generated from explosions, collisions, or faulty payload assembly.

Loading next visibility...
Identifier
26050, 1965-108AJ
Orbit
HEO
Country
Flag of USUS
Related business
Manufacturer
Unknown
Mission
Spacecraft
Bus & Motor
Unknown
Mass
Unknown
Launch date (UTC)
1965-12-21 (60 years ago)
Launch vehicle
Unknown
Launch site
Air Force Eastern Test Range (AFETR)
Object type
Payload
Rocket body
Debris
Shape & HBR
Unknown
Radar Cross Section
Medium (>0.1 m² and <1 m²)

Expand to show TLE details & history
Last TLE update: 3 days ago

TLE from 3 days ago
0 TITAN 3C TRANSTAGE DEB
1 26050U 65108AJ  25240.38685384 -.00000351  00000-0 -20003-1 0  9998
2 26050  26.6913 342.3942 6615999  78.6042 344.0463  2.69831862258319
Epoch: 2025-08-28T09:17Z
TLE epoch observation values (Epoch: 2025-08-28T09:17:04.171Z)
Latitude
0.0001°
Longitude
-133.70762°
Altitude
4,472.891 km
Speed
7.428 km/s
True Right ascension
22h 49m 38s
True Declination
0° 00' 00"
Sunlit
Object was in full shadow at epoch
Visualization orbit readout
Latitude
Unknown
Longitude
Unknown
Altitude
Unknown
Speed
Unknown
Apparent Right ascension
Unknown
Apparent Declination
Unknown
Sunlit
N/A
Visualization observer readout
Local Sidereal Time
16:05:08
Azimuth
Unknown
Elevation
Unknown
Doppler factor
Unknown
Orbital elements
Apogee altitude
29,840.576 km
Perigee altitude
998.137 km
Semi-major axis
21,797.494 km
Eccentricity
0.6616
Inclination
26.6913°
RAAN
342.3942°
Arg. of periapsis
78.6042°
True anomaly
281.25013°
Mean anomaly
344.0463°
Eccentric anomaly
319.35476°
Mean motion
0.67442 °/min
Orbital period
533.79 mins
BSTAR
-0.020003
Loading maneuver chart data...
Computing Atmospheric mass density...

Documentation

Showing up to 5 results
|